Precipitable_Water
0.55 0.54 0.54 0.55 0.56 0.67 0.69 0.78 0.79 0.78 0.76 0.72 0.67 0.63 0.62 0.57 0.49 0.39 0.35 0.42 0.31 0.22 0.26 0.31 0.31 0.26 0.27 0.26 0.17 0.24 0.22 0.25 0.24 0.17 0.19 0.19 0.21 0.24 0.24 0.26 0.27 0.26 0.29 0.30 0.33 0.33 0.28 0.47 0.43 0.33 0.35 0.38 0.37 0.37
0.55 0.54 0.52 0.51 0.54 0.64 0.69 0.75 0.77 0.78 0.76 0.71 0.68 0.66 0.64 0.58 0.51 0.44 0.34 0.41 0.39 0.25 0.23 0.34 0.36 0.38 0.34 0.33 0.29 0.28 0.26 0.25 0.28 0.22 0.24 0.24 0.21 0.27 0.24 0.17 0.32 0.24 0.32 0.29 0.34 0.33 0.46 0.53 0.51 0.55 0.52 0.46 0.45 0.43
0.53 0.53 0.52 0.50 0.53 0.63 0.68 0.70 0.74 0.76 0.74 0.73 0.69 0.67 0.65 0.59 0.50 0.43 0.36 0.37 0.32 0.24 0.22 0.22 0.20 0.26 0.32 0.34 0.38 0.24 0.27 0.31 0.32 0.39 0.30 0.28 0.22 0.29 0.19 0.21 0.23 0.28 0.40 0.36 0.37 0.41 0.46 0.54 0.61 0.62 0.60 0.55 0.53 0.50
0.52 0.52 0.53 0.51 0.52 0.63 0.70 0.70 0.76 0.75 0.74 0.73 0.70 0.68 0.65 0.57 0.49 0.44 0.35 0.36 0.30 0.26 0.16 0.18 0.30 0.25 0.33 0.30 0.27 0.28 0.29 0.39 0.40 0.36 0.28 0.25 0.22 0.31 0.24 0.29 0.26 0.27 0.28 0.29 0.33 0.40 0.45 0.54 0.56 0.59 0.62 0.65 0.60 0.57
0.51 0.50 0.52 0.52 0.50 0.58 0.68 0.71 0.76 0.75 0.74 0.71 0.69 0.67 0.62 0.54 0.49 0.43 0.39 0.38 0.36 0.24 0.16 0.17 0.24 0.25 0.26 0.26 0.25 0.26 0.25 0.25 0.27 0.24 0.23 0.20 0.26 0.24 0.26 0.27 0.21 0.25 0.23 0.26 0.28 0.45 0.48 0.50 0.62 0.63 0.58 0.60 0.64 0.60
0.50 0.50 0.50 0.52 0.51 0.55 0.67 0.68 0.74 0.74 0.74 0.70 0.68 0.64 0.57 0.52 0.47 0.38 0.28 0.38 0.41 0.35 0.20 0.13 0.22 0.20 0.23 0.24 0.23 0.23 0.27 0.26 0.24 0.22 0.21 0.24 0.27 0.23 0.17 0.15 0.17 0.23 0.31 0.38 0.32 0.42 0.51 0.60 0.61 0.65 0.61 0.60 0.62 0.61
0.51 0.49 0.48 0.54 0.53 0.61 0.68 0.71 0.73 0.72 0.72 0.69 0.65 0.60 0.55 0.50 0.43 0.31 0.25 0.33 0.42 0.36 0.20 0.13 0.12 0.19 0.23 0.27 0.23 0.21 0.24 0.24 0.25 0.25 0.23 0.22 0.23 0.26 0.21 0.13 0.14 0.18 0.24 0.31 0.40 0.46 0.46 0.54 0.51 0.59 0.64 0.64 0.66 0.66
0.51 0.48 0.49 0.59 0.56 0.60 0.68 0.70 0.69 0.70 0.68 0.66 0.62 0.59 0.56 0.51 0.46 0.35 0.41 0.44 0.41 0.29 0.25 0.14 0.13 0.15 0.27 0.23 0.20 0.27 0.21 0.24 0.25 0.22 0.25 0.22 0.26 0.26 0.17 0.17 0.19 0.20 0.22 0.24 0.28 0.32 0.32 0.40 0.41 0.53 0.64 0.67 0.66 0.65
0.52 0.49 0.53 0.65 0.60 0.62 0.69 0.70 0.69 0.66 0.65 0.63 0.60 0.56 0.50 0.42 0.34 0.37 0.48 0.46 0.43 0.29 0.18 0.17 0.13 0.11 0.25 0.24 0.30 0.30 0.29 0.18 0.25 0.21 0.22 0.25 0.20 0.17 0.19 0.21 0.20 0.22 0.22 0.21 0.28 0.31 0.34 0.41 0.45 0.53 0.64 0.71 0.63 0.65
0.51 0.50 0.54 0.60 0.60 0.64 0.68 0.69 0.65 0.64 0.62 0.58 0.53 0.40 0.31 0.37 0.48 0.47 0.38 0.30 0.29 0.30 0.27 0.18 0.23 0.15 0.20 0.20 0.21 0.22 0.30 0.24 0.19 0.22 0.29 0.23 0.17 0.19 0.19 0.19 0.21 0.25 0.27 0.27 0.22 0.20 0.26 0.32 0.39 0.52 0.59 0.62 0.64 0.68
0.55 0.54 0.55 0.55 0.56 0.65 0.65 0.65 0.64 0.61 0.56 0.45 0.35 0.31 0.41 0.48 0.37 0.30 0.23 0.20 0.21 0.18 0.22 0.21 0.21 0.16 0.23 0.16 0.16 0.20 0.21 0.26 0.19 0.21 0.23 0.20 0.16 0.22 0.30 0.31 0.33 0.37 0.37 0.35 0.33 0.28 0.28 0.33 0.35 0.46 0.57 0.57 0.56 0.65
0.58 0.58 0.57 0.56 0.57 0.65 0.64 0.63 0.59 0.51 0.44 0.39 0.39 0.45 0.41 0.31 0.25 0.20 0.18 0.21 0.19 0.15 0.19 0.17 0.18 0.20 0.20 0.23 0.17 0.19 0.16 0.22 0.15 0.30 0.24 0.21 0.29 0.37 0.39 0.39 0.41 0.45 0.45 0.41 0.39 0.37 0.35 0.37 0.40 0.43 0.47 0.46 0.48 0.54
0.57 0.59 0.57 0.61 0.63 0.65 0.64 0.61 0.54 0.51 0.46 0.40 0.33 0.29 0.24 0.24 0.17 0.15 0.13 0.15 0.16 0.18 0.18 0.18 0.17 0.19 0.22 0.22 0.18 0.19 0.17 0.18 0.25 0.20 0.19 0.26 0.37 0.41 0.41 0.43 0.46 0.49 0.49 0.46 0.43 0.43 0.42 0.41 0.44 0.44 0.46 0.46 0.46 0.53
0.56 0.59 0.63 0.64 0.63 0.62 0.60 0.56 0.51 0.45 0.37 0.28 0.23 0.18 0.19 0.18 0.17 0.17 0.16 0.16 0.18 0.19 0.18 0.19 0.21 0.20 0.22 0.18 0.17 0.16 0.16 0.20 0.16 0.15 0.18 0.23 0.34 0.37 0.38 0.41 0.46 0.47 0.50 0.49 0.48 0.46 0.43 0.42 0.41 0.41 0.43 0.48 0.52 0.52
0.57 0.61 0.64 0.64 0.63 0.60 0.56 0.52 0.48 0.42 0.33 0.25 0.23 0.17 0.18 0.21 0.21 0.20 0.20 0.19 0.19 0.21 0.21 0.21 0.25 0.26 0.23 0.20 0.21 0.17 0.17 0.16 0.17 0.16 0.18 0.20 0.25 0.30 0.32 0.34 0.38 0.44 0.48 0.50 0.49 0.45 0.45 0.45 0.43 0.43 0.48 0.49 0.57 0.55
0.58 0.63 0.59 0.61 0.60 0.57 0.54 0.50 0.44 0.40 0.33 0.27 0.24 0.20 0.23 0.20 0.19 0.20 0.20 0.19 0.23 0.24 0.27 0.27 0.25 0.22 0.19 0.19 0.18 0.16 0.13 0.14 0.18 0.20 0.22 0.24 0.23 0.26 0.30 0.31 0.32 0.36 0.43 0.42 0.48 0.49 0.45 0.44 0.44 0.46 0.49 0.47 0.52 0.58
0.57 0.51 0.61 0.60 0.59 0.57 0.53 0.46 0.43 0.37 0.31 0.26 0.23 0.26 0.23 0.21 0.18 0.18 0.20 0.19 0.25 0.26 0.22 0.27 0.21 0.19 0.25 0.20 0.18 0.22 0.18 0.20 0.24 0.25 0.24 0.24 0.23 0.25 0.26 0.29 0.29 0.30 0.34 0.35 0.41 0.45 0.48 0.48 0.46 0.45 0.42 0.44 0.47 0.54
0.52 0.59 0.59 0.58 0.55 0.52 0.48 0.46 0.38 0.34 0.28 0.28 0.23 0.24 0.25 0.25 0.21 0.21 0.22 0.26 0.27 0.27 0.28 0.25 0.29 0.22 0.19 0.20 0.20 0.25 0.27 0.29 0.29 0.26 0.25 0.25 0.26 0.26 0.26 0.26 0.27 0.28 0.29 0.31 0.36 0.40 0.44 0.44 0.42 0.41 0.43 0.43 0.45 0.47
0.57 0.57 0.57 0.55 0.51 0.44 0.37 0.38 0.39 0.28 0.27 0.29 0.28 0.28 0.27 0.26 0.27 0.28 0.25 0.29 0.34 0.35 0.31 0.28 0.24 0.19 0.19 0.22 0.22 0.23 0.26 0.27 0.24 0.24 0.24 0.25 0.26 0.26 0.25 0.25 0.26 0.26 0.27 0.29 0.31 0.35 0.40 0.43 0.41 0.42 0.44 0.43 0.41 0.44
0.57 0.56 0.56 0.52 0.47 0.39 0.33 0.33 0.38 0.29 0.26 0.28 0.29 0.26 0.25 0.24 0.24 0.23 0.24 0.25 0.27 0.28 0.24 0.22 0.19 0.19 0.21 0.24 0.25 0.25 0.26 0.27 0.25 0.21 0.20 0.21 0.23 0.24 0.25 0.25 0.24 0.25 0.25 0.26 0.28 0.31 0.36 0.41 0.43 0.42 0.43 0.45 0.43 0.43
0.52 0.52 0.52 0.50 0.43 0.37 0.32 0.31 0.30 0.30 0.28 0.25 0.27 0.25 0.22 0.24 0.21 0.19 0.19 0.23 0.22 0.19 0.17 0.20 0.21 0.22 0.26 0.27 0.29 0.28 0.25 0.25 0.21 0.20 0.20 0.19 0.22 0.23 0.22 0.24 0.24 0.24 0.23 0.23 0.25 0.28 0.32 0.38 0.43 0.42 0.41 0.42 0.44 0.45
0.46 0.50 0.45 0.45 0.38 0.36 0.31 0.33 0.29 0.30 0.27 0.25 0.25 0.25 0.21 0.19 0.18 0.19 0.20 0.18 0.16 0.15 0.16 0.16 0.17 0.19 0.20 0.21 0.24 0.28 0.27 0.25 0.22 0.23 0.24 0.23 0.20 0.21 0.21 0.22 0.22 0.20 0.21 0.22 0.25 0.27 0.33 0.38 0.42 0.45 0.41 0.39 0.41 0.42
0.48 0.46 0.41 0.39 0.31 0.30 0.28 0.33 0.26 0.27 0.21 0.21 0.23 0.20 0.19 0.19 0.20 0.22 0.16 0.17 0.16 0.17 0.17 0.17 0.16 0.17 0.18 0.19 0.19 0.22 0.25 0.22 0.20 0.22 0.24 0.24 0.23 0.23 0.26 0.26 0.25 0.21 0.19 0.21 0.26 0.31 0.35 0.40 0.41 0.40 0.42 0.41 0.38 0.39
0.47 0.37 0.30 0.28 0.28 0.25 0.29 0.25 0.27 0.24 0.23 0.21 0.19 0.17 0.18 0.18 0.22 0.18 0.15 0.14 0.15 0.17 0.19 0.20 0.21 0.20 0.22 0.22 0.20 0.18 0.20 0.22 0.22 0.24 0.28 0.27 0.26 0.28 0.32 0.29 0.27 0.25 0.25 0.26 0.30 0.34 0.37 0.39 0.39 0.39 0.39 0.38 0.38 0.38
0.29 0.27 0.28 0.23 0.27 0.24 0.22 0.22 0.22 0.21 0.19 0.20 0.18 0.16 0.16 0.19 0.15 0.14 0.12 0.12 0.13 0.16 0.19 0.21 0.21 0.20 0.18 0.19 0.19 0.19 0.25 0.30 0.31 0.30 0.30 0.33 0.32 0.34 0.32 0.31 0.29 0.28 0.31 0.30 0.31 0.35 0.39 0.43 0.44 0.43 0.41 0.39 0.38 0.37
0.22 0.25 0.23 0.22 0.22 0.20 0.21 0.18 0.19 0.19 0.20 0.18 0.17 0.19 0.20 0.17 0.14 0.12 0.13 0.14 0.16 0.17 0.17 0.16 0.17 0.21 0.22 0.23 0.23 0.24 0.29 0.36 0.36 0.31 0.31 0.34 0.33 0.32 0.31 0.29 0.28 0.30 0.40 0.43 0.44 0.47 0.48 0.47 0.45 0.44 0.42 0.42 0.40 0.38
0.20 0.21 0.24 0.26 0.24 0.23 0.21 0.22 0.22 0.19 0.17 0.15 0.16 0.16 0.16 0.13 0.11 0.12 0.15 0.17 0.15 0.16 0.18 0.18 0.18 0.19 0.19 0.21 0.25 0.29 0.33 0.34 0.34 0.32 0.36 0.37 0.36 0.37 0.40 0.34 0.33 0.43 0.53 0.54 0.53 0.51 0.48 0.46 0.44 0.43 0.42 0.43 0.43 0.42
0.23 0.23 0.19 0.22 0.21 0.21 0.19 0.19 0.17 0.16 0.16 0.18 0.17 0.13 0.12 0.11 0.10 0.13 0.14 0.15 0.15 0.16 0.17 0.18 0.19 0.20 0.21 0.22 0.25 0.28 0.30 0.33 0.34 0.34 0.34 0.35 0.35 0.38 0.44 0.48 0.53 0.55 0.57 0.56 0.53 0.51 0.49 0.47 0.45 0.44 0.43 0.42 0.42 0.44
0.21 0.23 0.22 0.19 0.19 0.18 0.16 0.15 0.15 0.16 0.17 0.15 0.12 0.11 0.10 0.12 0.14 0.14 0.14 0.16 0.17 0.17 0.16 0.17 0.18 0.21 0.23 0.25 0.29 0.31 0.32 0.30 0.29 0.27 0.28 0.28 0.29 0.39 0.52 0.53 0.55 0.55 0.54 0.52 0.51 0.50 0.48 0.47 0.45 0.44 0.42 0.41 0.40 0.40
0.21 0.23 0.18 0.17 0.15 0.14 0.15 0.16 0.14 0.16 0.17 0.17 0.17 0.16 0.15 0.14 0.15 0.18 0.18 0.18 0.18 0.17 0.19 0.20 0.20 0.22 0.22 0.24 0.26 0.27 0.30 0.35 0.37 0.34 0.29 0.31 0.41 0.49 0.52 0.54 0.53 0.52 0.51 0.49 0.47 0.46 0.46 0.45 0.44 0.42 0.39 0.38 0.37 0.37
0.23 0.21 0.17 0.16 0.14 0.15 0.16 0.19 0.20 0.21 0.20 0.18 0.19 0.16 0.13 0.15 0.18 0.20 0.20 0.20 0.21 0.23 0.23 0.23 0.23 0.25 0.25 0.25 0.27 0.29 0.33 0.40 0.40 0.42 0.47 0.48 0.51 0.54 0.54 0.53 0.52 0.51 0.49 0.47 0.45 0.44 0.42 0.41 0.41 0.40 0.39 0.37 0.37 0.38
0.21 0.18 0.16 0.14 0.14 0.18 0.20 0.18 0.18 0.17 0.16 0.15 0.14 0.17 0.18 0.17 0.15 0.17 0.22 0.27 0.32 0.34 0.36 0.35 0.34 0.35 0.40 0.42 0.44 0.44 0.41 0.42 0.47 0.48 0.51 0.55 0.55 0.55 0.54 0.53 0.51 0.50 0.48 0.46 0.44 0.43 0.42 0.41 0.40 0.40 0.40 0.40 0.40 0.40
0.20 0.19 0.17 0.16 0.14 0.14 0.17 0.17 0.16 0.15 0.15 0.14 0.15 0.17 0.18 0.19 0.18 0.26 0.35 0.40 0.42 0.44 0.45 0.46 0.46 0.47 0.47 0.45 0.42 0.44 0.47 0.48 0.51 0.53 0.55 0.57 0.56 0.55 0.54 0.52 0.51 0.49 0.47 0.45 0.44 0.43 0.42 0.41 0.40 0.40 0.40 0.40 0.40 0.40
Wind_Speed
21 25 32 37 38 39 34 33 41 37 39 36 34 31 29 26 23 21 20 19 18 18 19 20 20 20 20 21 21 21 20 22 21 22 22 22 22 22 24 25 24 24 23 25 27 28 30 24 20 22 20 18 18 18
18 23 28 34 37 40 36 31 41 39 37 36 33 30 28 26 23 20 18 18 17 16 16 19 20 21 22 21 21 21 21 20 21 21 23 23 24 24 24 24 24 24 26 25 27 28 26 22 23 23 24 22 20 21
17 21 26 32 36 40 37 32 39 41 40 37 33 30 28 25 22 20 18 17 16 15 16 18 20 21 22 24 24 22 23 23 23 24 24 24 27 26 27 27 27 26 25 28 29 29 28 30 28 24 23 24 24 21
15 20 24 30 36 39 38 32 37 41 41 37 33 30 28 25 22 19 17 16 14 13 14 15 16 18 19 21 25 25 24 23 24 25 26 27 28 28 29 29 30 29 27 28 32 33 33 27 26 26 26 24 25 24
14 18 23 29 36 39 40 34 38 41 40 36 33 30 27 24 21 17 15 15 14 13 12 14 17 19 21 24 24 24 26 25 24 24 25 27 28 29 32 34 37 32 31 29 28 29 30 34 31 30 29 26 24 27
15 18 22 27 34 38 40 32 40 41 42 37 33 30 27 23 20 16 12 14 13 12 11 12 15 16 16 17 19 21 21 22 24 23 24 25 26 27 29 32 35 35 34 33 33 32 31 32 34 33 32 31 29 28
15 19 22 27 34 38 37 33 39 44 42 37 34 31 26 23 18 13 11 10 12 10 9 9 10 11 11 12 14 17 19 21 22 23 24 25 25 26 29 34 31 32 35 34 31 31 34 32 32 35 36 33 30 29
15 20 23 27 34 39 39 36 37 42 40 38 34 30 25 21 17 12 9 9 8 7 7 7 9 11 11 13 13 14 17 19 21 23 23 24 25 28 30 31 31 32 34 37 37 36 36 35 33 31 34 35 31 29
15 21 26 27 35 37 40 40 39 42 41 38 33 28 23 18 16 13 11 8 7 7 7 8 10 11 11 12 13 14 15 18 20 22 23 23 26 28 28 27 27 26 28 30 32 33 32 31 29 26 23 27 30 30
16 23 27 28 33 39 41 41 44 44 40 36 30 22 18 18 17 14 10 9 9 10 10 11 11 12 13 13 13 13 15 16 17 18 18 23 28 31 31 32 30 29 30 32 34 37 35 34 29 27 27 25 27 28
16 24 28 29 35 42 42 45 47 44 39 30 23 18 20 20 14 11 10 9 9 10 11 11 12 14 14 15 15 14 13 13 14 13 15 16 16 18 19 21 22 23 25 28 33 36 37 35 32 31 28 27 25 26
15 22 26 30 40 47 47 49 48 38 31 26 23 22 19 14 11 10 10 9 11 11 10 11 13 12 13 13 14 14 14 13 13 10 11 10 8 9 10 13 16 18 19 21 23 27 31 32 31 32 32 31 29 25
15 20 25 39 46 49 48 47 42 39 34 27 19 16 15 13 11 12 11 9 10 11 11 11 11 10 10 11 12 13 13 13 11 11 11 8 7 8 7 9 11 13 16 16 17 20 24 26 28 28 29 28 29 29
17 19 31 46 48 45 48 46 44 37 27 20 17 16 14 12 12 12 11 9 10 10 10 10 10 10 11 11 13 14 15 12 11 10 9 8 8 8 8 10 8 11 10 13 14 16 18 22 24 25 26 27 29 29
20 23 40 41 47 48 47 45 38 31 22 17 15 14 14 12 9 9 9 9 10 10 10 10 11 12 11 13 12 13 12 12 11 11 10 8 8 8 9 9 10 8 7 8 11 13 14 18 21 22 23 24 26 27
22 34 37 45 48 47 45 39 31 25 19 16 14 12 10 10 10 9 10 9 9 9 9 10 10 9 10 8 8 12 12 11 9 10 11 10 9 10 11 11 10 10 9 9 7 11 14 15 18 19 20 21 24 26
28 30 44 46 47 45 40 33 26 21 19 15 14 13 10 9 10 9 9 10 9 8 9 8 8 8 5 6 7 8 10 11 12 12 12 13 13 12 12 11 12 13 12 12 11 11 13 15 16 17 18 18 20 23
28 38 45 46 45 41 34 28 23 20 19 17 14 14 13 11 9 9 10 9 9 10 9 10 9 9 8 6 5 7 9 11 12 13 13 13 13 13 14 14 14 14 13 13 13 13 14 15 17 17 17 18 19 22
37 42 45 44 40 35 28 26 22 19 17 17 14 13 14 12 11 10 10 10 10 10 10 11 11 12 12 14 14 12 12 14 14 15 16 16 17 17 17 17 16 16 15 15 14 14 14 15 17 18 18 18 19 21
40 41 43 39 35 26 23 23 25 19 18 18 17 16 15 14 13 14 14 14 13 13 13 15 16 17 15 15 15 15 15 16 17 18 19 20 19 20 20 19 19 19 18 18 17 17 16 15 16 18 19 20 19 19
38 40 38 35 28 22 19 19 21 21 17 16 16 15 14 14 14 14 15 16 16 17 19 19 20 20 21 21 20 20 20 19 19 20 22 23 24 24 24 23 23 21 20 19 19 18 18 17 16 17 19 20 21 21
36 38 33 29 24 20 18 17 19 19 18 17 15 14 13 13 14 15 16 17 19 22 23 23 23 23 24 25 24 22 21 19 20 21 22 24 26 28 29 28 27 26 24 23 22 21 21 20 18 17 18 19 20 21
35 32 28 23 22 20 18 19 18 19 17 17 15 15 14 15 15 15 16 18 21 22 22 21 21 22 23 24 24 24 22 22 22 23 25 26 28 28 29 30 29 28 27 26 24 23 22 21 21 21 20 20 21 21
30 25 23 22 20 20 20 19 18 17 16 16 15 14 15 16 15 16 18 20 21 20 18 20 21 21 19 19 21 22 23 22 23 23 23 24 25 26 24 24 25 26 26 25 24 23 23 23 23 23 24 23 25 25
22 20 21 19 19 19 18 17 17 16 15 15 14 15 15 15 16 17 19 20 20 16 15 15 14 14 14 14 13 15 17 18 18 20 23 24 24 21 21 21 22 23 23 23 24 25 26 26 26 26 25 26 26 27
19 16 19 20 19 17 17 16 16 16 15 15 16 15 15 16 17 18 18 18 15 13 13 12 12 11 12 14 15 16 18 19 22 23 24 23 20 18 17 17 17 18 19 21 23 24 25 25 25 26 27 27 27 28
18 16 17 18 17 17 15 15 15 14 15 15 15 15 16 17 18 18 18 16 15 16 16 16 15 15 16 17 18 19 21 23 24 25 23 21 19 18 17 17 17 17 18 20 21 22 22 23 23 23 23 25 27 29
16 16 17 17 16 15 14 14 15 16 16 16 16 17 18 18 19 20 20 20 20 21 22 22 22 22 21 21 22 23 24 25 25 22 21 19 18 17 16 16 17 18 19 19 20 20 19 19 20 20 21 22 23 26
16 17 16 13 12 13 14 15 16 17 17 18 19 21 22 23 23 23 24 24 25 25 25 25 25 24 24 24 24 25 25 22 19 20 18 15 13 12 12 14 15 16 17 18 15 14 14 14 14 15 17 18 19 22
17 17 14 14 14 15 15 16 17 18 20 21 22 23 23 23 23 24 25 25 25 26 28 27 25 23 22 23 23 23 21 20 18 15 13 12 10 9 10 12 13 14 13 9 8 8 9 10 11 14 17 18 20 22
17 15 14 14 14 14 14 14 16 18 20 20 20 21 21 20 21 22 22 24 23 20 19 19 19 20 22 23 22 20 17 12 10 11 11 9 8 8 9 10 10 7 4 3 3 5 8 12 14 16 18 20 23 24
17 17 15 14 15 14 13 13 13 13 13 14 15 15 16 16 16 15 12 10 11 13 15 17 19 21 21 20 17 12 11 11 10 8 7 5 4 5 6 6 2 1 2 4 6 8 11 14 16 17 19 21 22 24
16 16 15 12 11 11 11 10 9 10 10 11 12 10 9 8 9 9 10 12 14 16 17 17 17 14 10 8 9 11 12 11 8 6 5 2 1 3 4 2 4 7 8 9 11 13 15 17 17 19 20 22 23 24
Wind_Direction
221 217 212 211 211 208 209 206 202 204 203 205 204 204 205 207 210 216 219 222 225 229 231 233 236 237 239 241 242 245 247 247 247 243 246 246 246 248 251 249 248 244 238 238 239 240 247 243 245 243 252 252 255 255
223 218 213 210 208 205 206 209 201 200 199 196 198 200 203 205 209 212 216 219 224 230 235 238 241 242 244 243 244 247 248 247 246 246 247 250 251 251 248 250 249 246 243 242 240 242 247 251 251 255 258 256 254 256
227 219 214 209 205 203 201 201 199 199 199 198 198 200 201 203 206 211 214 217 226 235 243 246 247 248 247 246 246 248 250 250 248 249 249 250 250 251 250 248 250 249 250 245 248 242 251 255 252 255 259 258 256 252
229 220 214 208 203 200 198 199 197 194 193 196 197 196 197 199 202 207 212 217 225 234 242 247 249 250 250 249 247 247 248 250 249 250 250 250 250 248 250 252 251 249 255 250 250 251 251 241 251 257 258 259 255 249
231 220 213 206 202 199 197 197 193 190 190 190 191 191 193 194 197 201 209 219 228 236 241 252 262 261 258 253 250 247 245 247 249 250 250 251 252 252 252 252 249 246 247 247 249 249 246 247 253 258 254 257 258 250
233 221 210 203 198 196 195 196 188 184 186 187 186 186 187 189 190 198 218 227 230 239 251 260 267 264 261 252 245 243 243 245 246 249 251 252 253 252 254 252 250 247 246 247 252 251 249 252 251 254 252 256 257 252
230 213 203 197 192 189 187 185 185 184 181 182 182 182 183 185 192 207 215 217 218 234 249 263 268 259 262 255 251 247 245 247 248 251 252 254 254 252 256 255 255 252 250 252 252 251 249 250 253 255 252 253 253 249
215 201 193 189 186 184 184 179 174 174 176 176 175 176 179 181 185 195 197 197 209 238 256 261 268 272 266 262 260 255 250 250 252 254 257 257 257 255 258 260 259 257 253 249 251 251 248 251 250 253 252 246 246 244
200 190 184 181 182 181 181 176 174 173 172 171 172 173 179 192 198 201 197 210 237 251 257 268 271 275 274 270 264 261 257 257 258 258 258 256 256 254 260 260 258 256 250 246 246 248 245 243 245 246 244 239 240 240
190 185 183 180 179 178 171 172 171 169 169 170 172 183 191 195 185 192 224 241 255 262 266 275 277 279 276 272 267 265 262 261 263 262 260 259 262 262 261 259 260 257 255 254 253 248 241 239 243 237 242 243 239 238
188 184 184 185 182 179 175 170 168 166 168 175 184 191 182 181 199 218 230 240 255 268 271 277 276 279 278 268 263 264 264 265 265 263 257 269 273 274 267 262 257 256 255 257 250 245 239 238 240 237 235 239 241 240
180 185 187 188 182 174 170 170 170 175 180 180 174 171 180 199 213 220 233 242 254 265 269 280 285 281 280 270 258 254 256 259 261 261 259 265 276 296 285 273 266 264 260 262 251 239 234 233 236 236 237 241 238 239
182 182 184 174 167 169 173 172 174 170 167 171 181 190 196 208 217 219 225 247 254 266 272 283 288 285 280 270 260 250 250 253 262 253 248 247 277 290 301 309 287 275 267 260 248 240 234 232 233 233 235 238 239 232
175 171 166 166 171 171 169 169 169 172 178 186 189 190 205 213 227 228 237 250 261 270 271 280 290 286 278 270 263 253 244 248 247 242 238 255 268 278 285 312 308 298 278 256 246 241 239 235 235 236 236 239 234 230
167 166 163 167 167 167 167 168 171 176 183 190 193 201 210 217 222 226 232 258 270 270 280 280 288 291 282 275 260 247 235 238 235 232 232 246 271 280 283 294 303 314 311 276 251 247 244 238 238 239 237 237 233 228
165 164 166 165 166 167 168 171 175 182 187 192 199 201 209 212 226 233 243 260 272 279 280 282 286 289 284 264 235 231 229 228 225 232 236 250 270 279 280 286 290 297 308 306 288 260 252 244 238 239 242 240 234 228
166 169 168 167 168 169 171 174 180 189 199 202 207 211 210 221 228 236 249 267 271 275 270 276 273 268 252 264 248 230 231 231 237 251 250 258 265 277 284 289 289 296 296 300 281 278 263 252 246 246 246 243 234 229
172 166 166 167 168 172 178 186 192 198 204 208 211 215 219 230 240 252 257 263 273 270 264 273 269 257 248 239 252 249 249 249 253 257 257 263 265 272 277 285 289 289 288 289 287 279 269 262 253 250 249 245 237 232
172 169 169 171 175 179 188 195 201 205 213 213 218 216 221 235 248 257 260 263 271 276 273 271 269 258 252 257 260 268 266 258 262 265 266 267 265 270 274 280 283 284 281 279 280 281 277 270 258 252 247 244 240 233
170 171 171 174 178 187 197 205 208 213 216 217 218 220 231 243 253 257 258 264 268 278 279 271 266 261 260 259 265 265 270 268 272 272 272 270 269 267 269 276 277 282 281 277 274 273 275 276 267 255 249 246 242 238
168 171 174 179 185 192 199 204 206 210 209 213 215 221 235 245 254 258 264 264 269 277 280 275 270 269 262 263 263 266 269 270 274 277 276 273 272 269 271 271 272 274 275 276 272 272 270 272 273 262 253 247 243 239
173 174 177 183 192 200 204 205 204 203 209 215 216 230 243 250 258 264 268 270 279 282 280 275 271 269 268 263 262 260 263 268 275 278 279 278 277 272 268 268 268 267 267 269 268 269 266 266 268 265 256 248 243 240
170 176 184 191 198 205 208 204 208 211 218 221 228 238 245 254 262 268 274 281 289 288 282 276 271 271 271 267 260 255 257 266 276 280 283 283 282 275 269 264 264 263 262 263 264 264 263 265 262 259 257 250 243 239
174 183 190 194 200 203 204 209 212 214 220 224 230 240 250 258 265 271 279 289 291 290 283 277 277 278 278 271 261 255 258 268 278 284 286 290 288 280 270 264 262 260 259 259 259 259 261 262 260 258 253 250 243 237
179 189 195 199 203 201 205 208 215 218 220 225 235 249 256 260 268 275 284 292 290 281 286 290 285 273 268 268 268 261 265 271 277 285 293 294 293 280 269 266 261 258 256 257 258 260 263 263 261 257 250 247 239 233
188 198 200 201 202 204 207 211 216 220 228 237 244 252 259 265 271 276 286 288 284 271 281 291 288 279 270 263 268 275 277 281 286 289 292 294 286 275 271 265 261 263 260 262 264 265 264 259 254 250 246 240 234 229
194 201 201 203 204 207 214 218 220 229 234 240 248 254 261 266 271 278 281 269 277 279 280 282 281 278 277 278 278 280 284 286 287 290 290 286 277 267 265 263 265 270 273 273 271 267 263 257 251 245 239 234 228 225
200 197 196 201 208 214 214 221 225 231 240 248 253 256 260 265 274 278 270 274 276 278 279 278 276 276 276 276 280 285 289 289 288 285 284 279 269 260 261 261 267 274 277 278 276 271 260 250 244 238 233 227 221 215
198 193 193 202 206 214 221 227 236 246 251 252 258 265 271 275 278 274 272 274 280 283 278 278 277 275 274 277 280 284 287 285 280 277 271 267 258 252 258 271 279 283 284 285 274 260 249 241 232 220 208 203 199 195
199 202 207 213 219 231 240 242 253 258 262 264 269 274 275 276 274 273 276 279 279 281 281 278 272 270 273 278 284 286 282 276 268 254 245 243 246 262 274 286 288 293 291 274 262 247 228 210 193 186 183 181 179 178
203 211 217 222 230 238 244 255 265 268 269 269 269 271 273 278 279 278 278 281 283 282 279 275 272 270 274 279 280 280 276 254 229 220 222 234 257 271 288 300 302 295 279 260 225 193 180 177 174 171 172 174 175 175
214 218 221 228 238 242 249 263 271 273 272 270 270 271 276 281 280 284 287 281 282 288 289 287 284 281 278 274 268 248 216 199 197 203 204 218 254 294 309 316 316 121 116 114 122 138 148 154 160 164 167 169 170 172
211 212 214 219 236 243 253 262 267 277 277 280 280 275 269 269 275 285 288 288 293 297 298 298 292 279 257 221 191 176 172 170 170 172 179 196 284 345 1 68 110 115 115 117 120 123 128 134 140 145 149 153 157 160